Overview Statistics Trail Chart Weather Telemetry Raw packets
 

This is the latest recevied weather packets stored in our database for station/object Waldburg. If no packets are shown the sender has not sent any weather packets the latest 10 day(s).

<< 3 4 5 6 7 8 9 >>
Time Temp. Humidity Pressure Rain* Wind** Luminosity Snow
1788494531 16.11° C 75% 1019.6 hPa 0 mm - - -
1788492730 15.56° C 76% 1019.5 hPa 0 mm - - -
1788490930 15.56° C 76% 1019.7 hPa 0 mm - - -
1788489130 16.11° C 75% 1019.8 hPa 0 mm - - -
1788487330 16.67° C 74% 1020 hPa 0 mm - - -
1788485530 17.22° C 74% 1020.3 hPa 0 mm - - -
1788483730 17.22° C 73% 1020.5 hPa 0 mm - - -
1788481931 17.22° C 73% 1020.6 hPa 0 mm - - -
1788480131 17.78° C 72% 1020.7 hPa 0 mm - - -
1788478331 17.78° C 72% 1020.9 hPa 0 mm - - -
1788476531 18.33° C 71% 1020.9 hPa 0 mm - - -
1788474731 18.33° C 71% 1021.2 hPa 0 mm - - -
1788472931 18.33° C 68% 1021.3 hPa 0 mm - - -
1788471131 18.89° C 66% 1020.9 hPa 0 mm - - -
1788469331 18.89° C 65% 1020.9 hPa 0 mm - - -
1788467531 19.44° C 64% 1020.9 hPa 0 mm - - -
1788465730 19.44° C 63% 1020.7 hPa 0 mm - - -
1788463931 20° C 63% 1020.3 hPa 0 mm - - -
1788462131 20° C 63% 1020.1 hPa 0 mm - - -
1788460330 20.56° C 63% 1019.9 hPa 0 mm - - -
1788458531 21.11° C 63% 1019.6 hPa 0 mm - - -
1788456731 21.67° C 61% 1019.6 hPa 0 mm - - -
1788454941 22.22° C 60% 1019.6 hPa 0 mm - - -
1788453130 22.78° C 55% 1019.7 hPa 0 mm - - -
1788451331 23.33° C 52% 1019.7 hPa 0 mm - - -

* Rain since midnight (hover to see other rain measurements)
** Current wind speed in m/s (hover to see current wind gust speed)